TimeCST,TemperatureF,Dew PointF,Humidity,Sea Level PressureIn,VisibilityMPH,Wind Direction,Wind SpeedMPH,Gust SpeedMPH,PrecipitationIn,Events,Conditions,WindDirDegrees,DateUTC
12:15 AM,32.0,21.2,64,30.05,10.0,WNW,16.1,23.0,N/A,,Scattered Clouds,300,2013-01-06 06:15:00
12:35 AM,32.0,21.2,64,30.05,10.0,NW,13.8,17.3,N/A,,Overcast,320,2013-01-06 06:35:00
12:55 AM,32.0,21.2,64,30.05,10.0,WNW,11.5,18.4,N/A,,Overcast,300,2013-01-06 06:55:00
1:15 AM,32.0,21.2,64,30.06,10.0,WNW,12.7,18.4,N/A,,Overcast,300,2013-01-06 07:15:00
1:35 AM,30.2,21.2,69,30.06,10.0,WNW,9.2,-,N/A,,Overcast,300,2013-01-06 07:35:00
1:55 AM,30.2,21.2,69,30.06,10.0,WNW,8.1,-,N/A,,Overcast,300,2013-01-06 07:55:00
2:15 AM,30.2,21.2,69,30.07,10.0,WNW,10.4,-,N/A,,Overcast,290,2013-01-06 08:15:00
2:35 AM,30.2,21.2,69,30.07,10.0,WNW,15.0,-,N/A,,Overcast,290,2013-01-06 08:35:00
2:55 AM,30.2,21.2,69,30.08,10.0,WNW,11.5,20.7,N/A,,Overcast,290,2013-01-06 08:55:00
3:15 AM,30.2,19.4,64,30.08,10.0,West,15.0,18.4,N/A,,Overcast,280,2013-01-06 09:15:00
3:35 AM,30.2,19.4,64,30.09,10.0,WNW,12.7,-,N/A,,Overcast,290,2013-01-06 09:35:00
3:55 AM,30.2,19.4,64,30.10,10.0,WNW,13.8,-,N/A,,Overcast,300,2013-01-06 09:55:00
4:15 AM,28.4,19.4,69,30.11,10.0,NW,12.7,23.0,N/A,,Overcast,310,2013-01-06 10:15:00
4:35 AM,28.4,21.2,74,30.11,7.0,NW,10.4,18.4,N/A,,Overcast,310,2013-01-06 10:35:00
4:55 AM,28.4,19.4,69,30.12,7.0,WNW,16.1,-,N/A,,Overcast,300,2013-01-06 10:55:00
5:35 AM,28.4,19.4,69,30.14,7.0,NW,18.4,23.0,N/A,,Overcast,310,2013-01-06 11:35:00
5:55 AM,26.6,19.4,74,30.15,7.0,NW,17.3,-,N/A,,Overcast,310,2013-01-06 11:55:00
6:35 AM,24.8,17.6,74,30.16,10.0,WNW,12.7,17.3,N/A,,Scattered Clouds,300,2013-01-06 12:35:00
6:55 AM,24.8,17.6,74,30.17,7.0,WNW,15.0,19.6,N/A,,Clear,300,2013-01-06 12:55:00
7:15 AM,24.8,17.6,74,30.18,7.0,West,11.5,-,N/A,,Clear,280,2013-01-06 13:15:00
7:35 AM,24.8,17.6,74,30.19,7.0,West,13.8,19.6,N/A,,Clear,280,2013-01-06 13:35:00
7:55 AM,24.8,15.8,69,30.21,7.0,WNW,11.5,16.1,N/A,,Clear,290,2013-01-06 13:55:00
8:15 AM,24.8,15.8,69,30.22,7.0,West,16.1,19.6,N/A,,Clear,280,2013-01-06 14:15:00
8:35 AM,24.8,15.8,69,30.23,7.0,WNW,17.3,24.2,N/A,,Mostly Cloudy,290,2013-01-06 14:35:00
8:55 AM,24.8,15.8,69,30.24,7.0,WNW,13.8,-,N/A,,Overcast,290,2013-01-06 14:55:00
9:15 AM,24.8,15.8,69,30.25,7.0,WNW,12.7,-,N/A,,Scattered Clouds,290,2013-01-06 15:15:00
9:35 AM,24.8,15.8,69,30.25,10.0,West,13.8,17.3,N/A,,Scattered Clouds,270,2013-01-06 15:35:00
9:55 AM,24.8,15.8,69,30.26,10.0,West,11.5,16.1,N/A,,Clear,280,2013-01-06 15:55:00
10:15 AM,26.6,17.6,69,30.27,10.0,West,11.5,-,N/A,,Clear,280,2013-01-06 16:15:00
10:35 AM,26.6,17.6,69,30.28,10.0,WNW,10.4,-,N/A,,Clear,290,2013-01-06 16:35:00
10:55 AM,28.4,17.6,64,30.28,10.0,WNW,11.5,-,N/A,,Scattered Clouds,300,2013-01-06 16:55:00
11:15 AM,28.4,17.6,64,30.28,10.0,WNW,9.2,17.3,N/A,,Scattered Clouds,290,2013-01-06 17:15:00
11:35 AM,30.2,17.6,60,30.27,10.0,West,11.5,-,N/A,,Clear,280,2013-01-06 17:35:00
11:55 AM,30.2,17.6,60,30.27,10.0,West,10.4,-,N/A,,Clear,280,2013-01-06 17:55:00
12:15 PM,30.2,17.6,60,30.27,10.0,West,9.2,-,N/A,,Clear,270,2013-01-06 18:15:00
12:35 PM,30.2,15.8,55,30.27,10.0,WNW,9.2,-,N/A,,Clear,300,2013-01-06 18:35:00
12:55 PM,32.0,15.8,51,30.27,10.0,West,11.5,-,N/A,,Clear,280,2013-01-06 18:55:00
1:15 PM,33.8,15.8,48,30.27,10.0,West,8.1,-,N/A,,Clear,280,2013-01-06 19:15:00
1:35 PM,33.8,15.8,48,30.27,10.0,West,10.4,-,N/A,,Clear,280,2013-01-06 19:35:00
1:55 PM,33.8,14.0,44,30.28,10.0,WNW,9.2,-,N/A,,Clear,290,2013-01-06 19:55:00
2:15 PM,33.8,12.2,41,30.28,10.0,West,4.6,-,N/A,,Clear,270,2013-01-06 20:15:00
2:35 PM,33.8,12.2,41,30.28,10.0,West,9.2,-,N/A,,Clear,270,2013-01-06 20:35:00
2:55 PM,33.8,10.4,38,30.28,10.0,WNW,8.1,-,N/A,,Clear,290,2013-01-06 20:55:00
3:15 PM,33.8,10.4,38,30.29,10.0,WNW,5.8,-,N/A,,Clear,300,2013-01-06 21:15:00
3:35 PM,33.8,10.4,38,30.30,10.0,West,4.6,-,N/A,,Clear,280,2013-01-06 21:35:00
3:55 PM,33.8,12.2,41,30.30,10.0,West,8.1,-,N/A,,Clear,260,2013-01-06 21:55:00
4:15 PM,33.8,12.2,41,30.31,10.0,West,5.8,-,N/A,,Clear,270,2013-01-06 22:15:00
4:35 PM,30.2,14.0,51,30.31,10.0,West,5.8,-,N/A,,Clear,270,2013-01-06 22:35:00
4:55 PM,30.2,14.0,51,30.32,10.0,West,4.6,-,N/A,,Clear,260,2013-01-06 22:55:00
5:15 PM,30.2,14.0,51,30.31,10.0,Calm,Calm,-,N/A,,Clear,0,2013-01-06 23:15:00
5:35 PM,28.4,12.2,51,30.31,10.0,Calm,Calm,-,N/A,,Clear,0,2013-01-06 23:35:00
5:55 PM,28.4,14.0,55,30.32,10.0,Calm,Calm,-,N/A,,Clear,0,2013-01-06 23:55:00
6:15 PM,28.4,14.0,55,30.32,10.0,SSW,3.5,-,N/A,,Clear,210,2013-01-07 00:15:00
6:35 PM,26.6,14.0,59,30.32,10.0,SSW,3.5,-,N/A,,Clear,210,2013-01-07 00:35:00
6:55 PM,24.8,14.0,64,30.33,10.0,SSW,5.8,-,N/A,,Clear,210,2013-01-07 00:55:00
7:15 PM,24.8,15.8,69,30.33,10.0,SSW,4.6,-,N/A,,Clear,200,2013-01-07 01:15:00
7:35 PM,26.6,15.8,64,30.33,10.0,South,3.5,-,N/A,,Clear,190,2013-01-07 01:35:00
7:55 PM,28.4,15.8,59,30.33,10.0,SSW,3.5,-,N/A,,Clear,200,2013-01-07 01:55:00
8:15 PM,24.8,15.8,69,30.33,10.0,South,4.6,-,N/A,,Clear,190,2013-01-07 02:15:00
8:35 PM,24.8,15.8,69,30.32,10.0,SSW,4.6,-,N/A,,Clear,210,2013-01-07 02:35:00
8:55 PM,26.6,17.6,69,30.32,10.0,South,4.6,-,N/A,,Clear,180,2013-01-07 02:55:00
9:15 PM,24.8,15.8,69,30.32,10.0,SSW,4.6,-,N/A,,Clear,200,2013-01-07 03:15:00
9:55 PM,24.8,15.8,69,30.32,10.0,SW,5.8,-,N/A,,Clear,220,2013-01-07 03:55:00
10:35 PM,24.8,15.8,69,30.32,10.0,SSW,6.9,-,N/A,,Clear,200,2013-01-07 04:35:00
10:55 PM,24.8,17.6,74,30.32,10.0,SSW,6.9,-,N/A,,Clear,200,2013-01-07 04:55:00
11:35 PM,24.8,17.6,74,30.32,10.0,South,6.9,-,N/A,,Clear,190,2013-01-07 05:35:00
11:55 PM,24.8,17.6,74,30.31,10.0,South,4.6,-,N/A,,Clear,190,2013-01-07 05:55:00